Location: Unspecified
(35.7250°N, 0.0000°E)
Time: 00:26:50
(UTC+00:00)

Vanguard 1 Rocket - Pass Details

Date: 20 June 2019
Orbit: 651 x 4225 km, 34.3° (Epoch: 21 July)

Event Time Altitude Azimuth Distance (km) Brightness Sun altitude
Rises 19:55:38 0° 266° (W) 6,322 12.6 -7.1°
Reaches altitude 10° 20:00:37 10° 266° (W) 4,721 11.9 -7.9°
Maximum altitude 20:12:07 82° 182° (S) 1,283 8.1 -9.7°
Drops below altitude 10° 20:18:07 10° 94° (E) 2,569 9.2 -10.7°
Enters shadow 20:18:35 - 94° (E) 2,740 9.4 -10.8°
Sets 20:20:06 0° 94° (E) 3,316 - -11.0°
